Date String (YYYY-MM-DD hh:mm:ss) UTC,Instrument flags,absolute air pressure of the measurement (hPa),sample flow rate (lpm),inlet stack bypass flow (lpm),air temperature of the measurement (°C),ambient temperature measured by the external sensor (°C),aerosol sample conditioner tube jacket temperature (°C),OPC LED temperature (°C),internal box temperature (°C),relative humidity of the measurement (%),span deviation,mass concentration of particles derived from Lorenz-Mie calculation of OPC scattering (μg/m³),mass concentration of particles derived from Lorenz-Mie calculation of OPC scattering (μg/m³),mass concentration of particles derived from Lorenz-Mie calculation of OPC scattering (μg/m³)
DateTimeUTC,F1_M11,P_M11,Q1_M11,Q2_M11,T1_M11,T2_M11,T3_M11,T4_M11,T5_M11,U1_M11,ZSPAN_M11,X0_M11,X2_M11,X1_M11
2023-08-05 03:00:00,SystemResetWarning,0832.4,4.99,000.00,029.0,027.7,000.0,037.4,030.8,19.5,0000.0,0006.18,0002.36,0001.81
2023-08-05 03:01:00,SystemResetWarning,0832.4,4.99,000.00,029.1,027.7,000.0,037.4,030.8,19.3,0000.0,0006.12,0002.33,0001.80
2023-08-05 03:02:00,SystemResetWarning,0832.4,5.00,000.00,029.1,026.3,000.0,037.3,030.7,18.9,0000.0,0006.57,0002.37,0001.81
2023-08-05 03:03:00,SystemResetWarning,0832.4,5.00,000.00,029.0,025.4,000.0,037.2,030.4,19.0,0000.0,0007.29,0002.38,0001.81
2023-08-05 03:04:00,SystemResetWarning,0832.4,5.01,000.00,029.0,025.5,000.0,037.2,030.3,19.0,0000.0,0006.81,0002.38,0001.81
2023-08-05 03:05:00,SystemResetWarning,0832.5,5.02,000.00,028.9,025.8,000.0,037.3,030.3,19.1,0000.0,0006.38,0002.41,0001.81
2023-08-05 03:06:00,SystemResetWarning,0832.5,4.99,000.00,028.9,026.2,000.0,037.3,030.4,19.6,0000.0,0006.31,0002.41,0001.81
2023-08-05 03:07:00,SystemResetWarning,0832.5,4.99,000.00,028.9,026.6,000.0,037.3,030.5,19.7,0000.0,0006.04,0002.44,0001.81
2023-08-05 03:08:00,SystemResetWarning,0832.5,5.00,000.00,028.9,026.9,000.0,037.4,030.6,20.0,0000.0,0005.43,0002.46,0001.82
2023-08-05 03:09:00,SystemResetWarning,0832.5,5.00,000.00,029.0,027.2,000.0,037.4,030.7,20.1,0000.0,0005.47,0002.50,0001.84
2023-08-05 03:10:00,SystemResetWarning,0832.5,5.01,000.00,029.0,027.5,000.0,037.4,030.8,20.5,0000.0,0005.80,0002.55,0001.84
2023-08-05 03:11:00,SystemResetWarning,0832.6,5.01,000.00,029.1,027.7,000.0,037.4,030.8,20.3,0000.0,0005.93,0002.56,0001.84
2023-08-05 03:12:00,SystemResetWarning,0832.6,5.00,000.00,029.1,027.8,000.0,037.5,030.9,20.5,0000.0,0006.07,0002.59,0001.85
2023-08-05 03:13:00,SystemResetWarning,0832.6,4.98,000.00,029.1,026.7,000.0,037.4,030.7,20.5,0000.0,0005.76,0002.57,0001.85
2023-08-05 03:14:00,SystemResetWarning,0832.7,5.01,000.00,029.1,025.4,000.0,037.3,030.4,20.5,0000.0,0005.05,0002.54,0001.85
2023-08-05 03:15:00,SystemResetWarning,0832.6,5.01,000.00,029.0,025.4,000.0,037.2,030.3,20.4,0000.0,0005.59,0002.54,0001.85
2023-08-05 03:16:00,SystemResetWarning,0832.6,4.99,000.00,028.9,025.7,000.0,037.3,030.3,20.4,0000.0,0006.00,0002.54,0001.85
2023-08-05 03:17:00,SystemResetWarning,0832.6,4.99,000.00,028.9,026.1,000.0,037.3,030.4,20.4,0000.0,0006.06,0002.59,0001.87
2023-08-05 03:18:00,SystemResetWarning,0832.7,5.01,000.00,028.9,026.5,000.0,037.4,030.5,20.3,0000.0,0006.19,0002.60,0001.86
2023-08-05 03:19:00,SystemResetWarning,0832.7,4.99,000.00,028.9,026.8,000.0,037.4,030.6,20.5,0000.0,0005.77,0002.65,0001.88
2023-08-05 03:20:00,SystemResetWarning,0832.6,4.99,000.00,029.0,027.1,000.0,037.4,030.7,20.5,0000.0,0005.79,0002.68,0001.89
2023-08-05 03:21:00,SystemResetWarning,0832.7,5.00,000.00,029.0,027.4,000.0,037.4,030.7,20.1,0000.0,0005.58,0002.67,0001.91
2023-08-05 03:22:00,SystemResetWarning,0832.7,5.00,000.00,029.1,027.6,000.0,037.5,030.8,20.2,0000.0,0006.35,0002.65,0001.93
2023-08-05 03:23:00,SystemResetWarning,0832.7,5.01,000.00,029.1,027.8,000.0,037.5,030.9,20.3,0000.0,0006.63,0002.63,0001.93
2023-08-05 03:24:00,SystemResetWarning,0832.7,5.00,000.00,029.1,027.8,000.0,037.5,030.9,19.9,0000.0,0006.98,0002.60,0001.93
2023-08-05 03:25:00,SystemResetWarning,0832.7,4.98,000.00,029.1,026.2,000.0,037.4,030.7,19.3,0000.0,0007.15,0002.67,0001.94
2023-08-05 03:26:00,SystemResetWarning,0832.7,5.00,000.00,029.1,025.3,000.0,037.3,030.4,19.9,0000.0,0006.91,0002.74,0001.94
2023-08-05 03:27:00,SystemResetWarning,0832.8,5.00,000.00,029.0,025.4,000.0,037.3,030.3,20.3,0000.0,0006.28,0002.76,0001.95
2023-08-05 03:28:00,SystemResetWarning,0832.8,5.01,000.00,028.9,025.7,000.0,037.3,030.3,20.9,0000.0,0006.22,0002.73,0001.94
2023-08-05 03:29:00,SystemResetWarning,0832.8,5.00,000.00,028.9,026.1,000.0,037.4,030.4,21.1,0000.0,0006.20,0002.75,0001.95
2023-08-05 03:30:00,SystemResetWarning,0833.0,5.00,000.00,028.9,026.5,000.0,037.4,030.5,21.3,0000.0,0006.17,0002.75,0001.95
2023-08-05 03:31:00,SystemResetWarning,0833.3,5.00,000.00,028.9,026.9,000.0,037.4,030.6,21.0,0000.0,0006.26,0002.72,0001.95
2023-08-05 03:32:00,SystemResetWarning,0833.0,5.00,000.00,029.0,027.2,000.0,037.4,030.7,20.4,0000.0,0006.23,0002.69,0001.94
2023-08-05 03:33:00,SystemResetWarning,0832.9,5.00,000.00,029.0,027.4,000.0,037.5,030.8,20.1,0000.0,0005.88,0002.71,0001.94
2023-08-05 03:34:00,SystemResetWarning,0833.2,4.99,000.00,029.1,027.6,000.0,037.5,030.8,20.2,0000.0,0005.36,0002.80,0001.94
2023-08-05 03:35:00,SystemResetWarning,0833.0,5.00,000.00,029.1,027.8,000.0,037.5,030.9,20.4,0000.0,0005.28,0002.86,0001.96
2023-08-05 03:36:00,SystemResetWarning,0833.3,5.00,000.00,029.2,027.9,000.0,037.5,030.9,20.4,0000.0,0005.07,0002.85,0001.98
2023-08-05 03:37:00,SystemResetWarning,0833.1,4.99,000.00,029.2,026.7,000.0,037.4,030.7,20.6,0000.0,0004.89,0002.78,0001.99
2023-08-05 03:38:00,SystemResetWarning,0833.1,5.00,000.00,029.1,025.4,000.0,037.3,030.5,20.7,0000.0,0004.91,0002.76,0001.98
2023-08-05 03:39:00,SystemResetWarning,0833.2,5.01,000.00,029.0,025.4,000.0,037.3,030.3,20.8,0000.0,0004.96,0002.79,0002.00
2023-08-05 03:40:00,SystemResetWarning,0833.2,5.01,000.00,029.0,025.6,000.0,037.3,030.3,21.9,0000.0,0004.90,0002.75,0002.01
2023-08-05 03:41:00,SystemResetWarning,0833.3,4.99,000.00,028.9,026.1,000.0,037.4,030.4,21.9,0000.0,0005.42,0002.73,0002.01
2023-08-05 03:42:00,SystemResetWarning,0833.3,5.00,000.00,028.9,026.5,000.0,037.4,030.5,22.3,0000.0,0005.52,0002.72,0002.01
2023-08-05 03:43:00,SystemResetWarning,0833.4,5.00,000.00,029.0,026.8,000.0,037.4,030.6,22.3,0000.0,0005.68,0002.78,0002.01
2023-08-05 03:44:00,SystemResetWarning,0833.4,5.01,000.00,029.0,027.1,000.0,037.5,030.7,22.2,0000.0,0005.86,0002.78,0002.02
2023-08-05 03:45:00,SystemResetWarning,0833.4,5.01,000.00,029.0,027.4,000.0,037.5,030.8,22.4,0000.0,0005.53,0002.71,0002.02
2023-08-05 03:46:00,SystemResetWarning,0833.5,4.99,000.00,029.1,027.6,000.0,037.5,030.8,22.5,0000.0,0005.30,0002.69,0002.03
2023-08-05 03:47:00,SystemResetWarning,0833.6,5.00,000.00,029.1,027.8,000.0,037.5,030.9,22.4,0000.0,0005.71,0002.71,0002.02
2023-08-05 03:48:00,SystemResetWarning,0833.6,4.99,000.00,029.2,027.8,000.0,037.5,030.9,22.4,0000.0,0005.85,0002.76,0002.03
2023-08-05 03:49:00,SystemResetWarning,0833.6,4.99,000.00,029.2,026.3,000.0,037.4,030.7,21.9,0000.0,0005.84,0002.79,0002.05
2023-08-05 03:50:00,SystemResetWarning,0833.6,5.01,000.00,029.1,025.4,000.0,037.3,030.5,21.8,0000.0,0006.01,0002.83,0002.04
2023-08-05 03:51:00,SystemResetWarning,0833.6,5.01,000.00,029.0,025.5,000.0,037.3,030.4,21.7,0000.0,0006.15,0002.88,0002.04
2023-08-05 03:52:00,SystemResetWarning,0833.6,4.99,000.00,029.0,025.8,000.0,037.4,030.4,21.7,0000.0,0005.77,0002.94,0002.06
2023-08-05 03:53:00,SystemResetWarning,0833.6,5.00,000.00,029.0,026.2,000.0,037.4,030.5,21.5,0000.0,0005.50,0002.96,0002.06
2023-08-05 03:54:00,SystemResetWarning,0833.6,5.00,000.00,029.0,026.6,000.0,037.4,030.6,20.9,0000.0,0005.38,0002.96,0002.07
2023-08-05 03:55:00,SystemResetWarning,0833.6,5.00,000.00,029.0,026.9,000.0,037.5,030.7,20.5,0000.0,0005.08,0002.94,0002.08
2023-08-05 03:56:00,SystemResetWarning,0833.7,5.00,000.00,029.0,027.2,000.0,037.5,030.7,20.4,0000.0,0005.11,0002.94,0002.09
2023-08-05 03:57:00,SystemResetWarning,0833.8,5.01,000.00,029.1,027.5,000.0,037.5,030.8,20.7,0000.0,0005.24,0002.97,0002.10
2023-08-05 03:58:00,SystemResetWarning,0833.8,5.00,000.00,029.1,027.7,000.0,037.5,030.9,22.8,0000.0,0004.95,0002.99,0002.11
2023-08-05 03:59:00,SystemResetWarning,0833.7,5.00,000.00,029.2,027.9,000.0,037.6,030.9,23.1,0000.0,0004.81,0002.97,0002.11
